Flag for Germany Weather past 2 weeks in Singen (Hohentwiel), Baden-Württemberg, Germany

Now
43 °F

Overcast.


Feels Like: 39 °F
Forecast: 33 / 45 °F
Wind: 7 mph from West

Location: Konstanz

Current Time: Dec 20, 2014 at 1:44:56 PM

Latest Report: Dec 20, 2014 at 1:00 PM


Visibility: 22 mi

Pressure: 30.34 "Hg

Humidity: 68%

Dew point: 33 °F

Location of Singen (Hohentwiel)Location

Historic Weather in Singen (Hohentwiel) — Graph

°F

Singen (Hohentwiel) temperature yesterday

Maximum temperature yesterday: 54 °F (at 2:00 PM)
Minimum temperature yesterday: 48 °F (at 5:00 AM)
Average temperature yesterday: 50 °F

Past Weeks' High & Low Weather Summary

 TemperatureHumidityPressure
High54 °F (Dec 19, 2:00 PM)100% (Dec 10, 5:00 AM)30.47 "Hg (Dec 10, 5:00 AM)
Low30 °F (Dec 10, 4:00 AM)49% (Dec 13, 2:00 PM)29.85 "Hg (Dec 12, 10:00 PM)
Average42 °F83%30.13 "Hg
* Reported Dec 5 12:00 Noon — Dec 20 12:00 Noon, Singen (Hohentwiel), Weather by CustomWeather, © 2014

Note: Actual official high and low records may vary slightly from our data, if they occured in-between our weather recording intervals... More about our weather records

Advertising

Singen (Hohentwiel) weather history for previous 24 hours

 ConditionsComfort  
Time TempWeatherWind HumidityBarometerVisibility
12:00 PM
Dec 20
43 °FPartly sunny.9 mph69%30.37 "Hg25 mi
11:00 AM44 °FPartly sunny.9 mph71%30.38 "Hg31 mi
10:00 AM44 °FPartly sunny.7 mph76%30.36 "Hg31 mi
9:00 AM44 °FScattered clouds.7 mph84%30.35 "Hg28 mi
8:00 AM44 °FPassing clouds.6 mph85%30.33 "Hg28 mi
7:00 AM45 °FOvercast.5 mph88%30.32 "Hg28 mi
6:00 AM47 °FOvercast.5 mph91%30.31 "Hg28 mi
5:00 AM47 °FOvercast.1 mph95%30.29 "Hg43 mi
4:00 AM47 °FOvercast.3 mph95%30.28 "Hg43 mi
3:00 AM47 °FOvercast.2 mph95%30.28 "Hg43 mi
2:00 AM47 °FOvercast.5 mph96%30.26 "Hg43 mi
1:00 AM48 °FRain. Dense fog.5 mph96%30.25 "Hg1 mi
12:00 AM48 °FDrizzle. Overcast.6 mph94%30.23 "Hg9 mi
11:00 PM
Dec 19
48 °FDrizzle. Overcast.6 mph93%30.21 "Hg22 mi
10:00 PM48 °FDrizzle. Overcast.6 mph93%30.20 "Hg31 mi
9:00 PM48 °FLight rain. Overcast.3 mph89%30.18 "Hg28 mi
8:00 PM51 °FPassing clouds.6 mph78%30.15 "Hg34 mi
7:00 PM50 °FOvercast.5 mph78%30.15 "Hg43 mi
6:00 PM49 °FOvercast.3 mph80%30.14 "Hg43 mi
5:00 PM50 °FOvercast.5 mph80%30.14 "Hg28 mi
4:00 PM51 °FOvercast.6 mph78%30.14 "Hg31 mi
3:00 PM52 °FOvercast.6 mph75%30.14 "Hg31 mi
2:00 PM54 °FOvercast.7 mph69%30.15 "Hg37 mi
1:00 PM52 °FOvercast.6 mph72%30.17 "Hg31 mi
Weather by CustomWeather, © 2014

See weather overviewHow to use our weather pages